Simultaneous Nadir Overpasses (SNOs) Predictions

Prediction of SNOs between NOAA-19 and TERRA Satellite Orbit:

Table of predicted SNOs for the next 14.0 days since TLE Epoch: 2/5/2022
Index Date (NOAA-19) Time (NOAA-19) Lat,Lon (NOAA-19) SZA (NOAA-19 ) Date (TERRA) Time (TERRA) Lat,Lon (TERRA) SZA (TERRA ) Distance(km) Time Diff (sec)
1 02/06/2022 07:48:20 80.63, 98.51 97.56 02/06/2022 07:48:01 80.64, 98.51 97.55 0.71 19
2 02/08/2022 13:21:18 -80.65,-165.04 83.16 02/08/2022 13:21:42 -80.63,-165.03 83.17 2.06 24
3 02/08/2022 14:12:20 80.60, 3.41 96.90 02/08/2022 14:11:06 80.69, 3.28 96.93 10.32 74
4 02/10/2022 18:54:26 80.65, -68.38 96.13 02/10/2022 18:55:21 80.65, -68.26 96.15 2.12 55
5 02/10/2022 19:45:19 -80.63, 99.45 83.86 02/10/2022 19:44:48 -80.64, 99.36 83.87 2.32 31
6 02/13/2022 01:18:27 80.64,-163.90 95.40 02/13/2022 01:18:27 80.65,-163.95 95.42 2.38 0
7 02/15/2022 06:51:25 -80.65, -67.55 85.37 02/15/2022 06:52:08 -80.63, -67.64 85.39 2.92 43
8 02/15/2022 07:42:29 80.64, 100.19 94.65 02/15/2022 07:41:33 80.66, 100.29 94.65 3.19 56
9 02/17/2022 12:24:34 80.68, 28.63 93.84 02/17/2022 12:25:47 80.63, 28.89 93.84 7.10 73



Historial Predications of SNOs between NOAA-19 and TERRA
